Regional Weather Roundup
Issued by NWS Newport/Morehead, NC

Current Version | Previous Version | Graphics & Text | Print | Product List | Glossary Off
Versions: 1 2 3 4 5 6 7 8 9 10 11 12 13 14 15 16 17 18 19 20 21 22 23 24 25 26 27 28 29 30 31 32 33 34 35 36 37 38 39 40 41 42 43 44 45 46 47 48 49 50

000
ASUS42 KMHX 260525
RWRMHX
WEATHER ROUNDUP FOR EASTERN NORTH CAROLINA
NATIONAL WEATHER SERVICE NEWPORT/MOREHEAD CITY NC
100 AM EDT TUE JUL 26 2016

NOTE: "FAIR" INDICATES FEW OR NO CLOUDS BELOW 12,000 FEET
WITH NO SIGNIFICANT WEATHER AND/OR OBSTRUCTIONS TO VISIBILITY

NCZ015>017-031-032-045>047-102-103-260600-
NORTH COAST

CITY           SKY/WX    TMP DP  RH WIND       PRES   REMARKS
EDENTON        MOCLDY    83  73  72 SW10G17   30.00R
ELIZABETH CITY CLOUDY    82  74  76 SW16      29.98S
KITTY HAWK     CLOUDY    82  75  81 SW10G18   29.98F
MANTEO           N/A     81  78  92 SW14      30.00S

$$

NCZ045>047-081-094-103-104-260600-
CENTRAL COAST

CITY           SKY/WX    TMP DP  RH WIND       PRES   REMARKS
FRISCO         PTCLDY    81  75  82 SW13G18   30.03S

$$

NCZ095-097-098-100-101-260600-
SOUTHERN COAST

CITY           SKY/WX    TMP DP  RH WIND       PRES   REMARKS
BEAUFORT       PTCLDY    83  75  77 SW14      30.04F
CEDAR ISLAND   NOT AVBL
JACKSONVILLE   CLEAR     78  74  87 SW8       30.03F
PINEY ISLAND   NOT AVBL
WILMINGTON     CLEAR     79  73  82 SW7       30.05S


$$

NCZ011>013-027>030-043-044-078>080-089-090>093-098-260600-
COASTAL PLAIN

CITY           SKY/WX    TMP DP  RH WIND       PRES   REMARKS
AHOSKIE        MOCLDY    80  74  84 S5        29.98S
CLINTON        PTCLDY    78  74  87 S6        30.04S
ELIZABETHTOWN  PTCLDY    79  74  85 SW7       30.05S
GOLDSBORO      CLOUDY    80  77  91 SW10      30.00S
GREENVILLE     CLOUDY    81  73  78 SW12G17   30.02S
HAVELOCK       CLOUDY    80  74  81 SW7       30.04F
KENANSVILLE    NOT AVBL
KINSTON        PTCLDY    80  73  77 SW10      30.03S
NEW BERN       PTCLDY    79  75  87 SW8       30.04S
RICHLANDS      PTCLDY    77  75  93 SW8       30.04F
ROCKY MOUNT    CLEAR     81  74  79 S8        30.00S
WASHINGTON     NOT AVBL
WHITEVILLE     CLEAR     78  74  86 S6        30.05S

$$

AMZ130-135-150-152-154-156-158-170-250-252-270-ANZ085-086-088-633-658-670-260600-
MARINE OBSERVATIONS

STATION/POSITION TIME  TEMP    WIND        PRES    WAVE   SWELL
                       AIR SEA DIR/SP/G            HT/PER HT/PER
                 (UTC) (F)     (DEG/KT/KT) (MB)    (FT/S) (FT/S)
CHESAPEAKE LIGHT NOT AVBL
64 E VA BEACH    0450   82 80  220/ 19/ 23 1014.0    4/ 6
DUCK             0500   83 63  230/ 17/ 22 1014.7
2 E DUCK         0511      67                N/A     2/ 9
OREGON INLET     0500   83 85  210/ 19/ 22 1015.6
13E OREGON INLT  0500      82                N/A     3/ 5
HATTERAS CG      0500   81 83  220/ 10/ 15 1016.4
DIAMOND BUOY     0450   84 85  230/ 17/ 21 1016.7    5/ 5
CAPE LOOKOUT     0500   83     230/ 11/ 16 1017.0
BEAUFORT LAB     0500   83 84  230/  6/ 12 1016.6
30 SE NEW RVR IN 0508   84 85  230/ 17/ 23 1017.3
30 SE NEW RVR IN 0425      85                N/A     4/ 5
27 SE WRIGHTSVLE 0508   84 85  230/ 16/ 19 1017.9
5 SE WRIGHTSVLE  0508   82 82  240/ 10/ 14 1018.2
225 S CAPE HAT   0450   83 84  180/  6/  8 1019.3    2/ 8   2/ 8
41 SE CHARLESTON 0450   85 86  210/ 14/ 16 1017.6    2/ 8   2/ 8

$$




USA.gov is the U.S. government's official web portal to all federal, state and local government web resources and services.